TRA2606 LGSA-EHRD

Flight info

Callsign TRA2606
Flight time 3h 29m
Altitude 36000
Route SOKRI UB1 DDM UM619 YNN UL604 DIMIS DCT ABISO DCT ERKIR DCT BABEG DCT LIRSU DCT SOGRI L608 BUB Y28 HELEN
Aircraft B738/M-SDE2E3FGHIRWXY/LB1

Departure

Time 2026-04-27 07:11
Airport Chania International Airport (LGSA)

Arrival

Time 2026-04-27 10:41
Airport Rotterdam The Hague Airport (EHRD)
Time Latitude Longitude Altitude Speed Heading
2026-04-27 06:49 35.53859 24.14109 493 ft 0 kts 20°
2026-04-27 07:05 35.53838 24.14099 495 ft 6 kts 20°
2026-04-27 07:06 35.53800 24.14081 492 ft 6 kts 39°
2026-04-27 07:06 35.53788 24.14056 486 ft 0 kts 114°
2026-04-27 07:07 35.53774 24.14097 493 ft 12 kts 112°
2026-04-27 07:07 35.53729 24.14243 497 ft 24 kts 110°
2026-04-27 07:08 35.53593 24.14359 495 ft 26 kts 158°
2026-04-27 07:08 35.53501 24.14544 493 ft 27 kts 106°
2026-04-27 07:08 35.53458 24.14684 492 ft 26 kts 112°
2026-04-27 07:08 35.53389 24.14892 487 ft 28 kts 113°
2026-04-27 07:09 35.53297 24.15178 493 ft 26 kts 112°
2026-04-27 07:09 35.53228 24.15385 492 ft 28 kts 111°
2026-04-27 07:09 35.53160 24.15599 492 ft 26 kts 111°
2026-04-27 07:09 35.53093 24.15807 494 ft 28 kts 112°
2026-04-27 07:10 35.53044 24.15954 492 ft 27 kts 112°
2026-04-27 07:10 35.52977 24.16160 495 ft 25 kts 111°
2026-04-27 07:10 35.52868 24.16271 494 ft 24 kts 202°
2026-04-27 07:10 35.52802 24.16125 487 ft 23 kts 290°
2026-04-27 07:11 35.52945 24.15683 491 ft 96 kts 291°
2026-04-27 07:11 35.53290 24.14646 548 ft 159 kts 293°
2026-04-27 07:11 35.53797 24.13246 975 ft 193 kts 295°
2026-04-27 07:11 35.54298 24.11764 2126 ft 184 kts 291°
2026-04-27 07:12 35.54769 24.10221 2965 ft 202 kts 291°
2026-04-27 07:12 35.55339 24.08596 3366 ft 217 kts 307°
2026-04-27 07:12 35.56583 24.07596 3856 ft 221 kts 349°
2026-04-27 07:12 35.58114 24.07628 4520 ft 223 kts
2026-04-27 07:13 35.59670 24.07837 5138 ft 226 kts
2026-04-27 07:13 35.61235 24.08061 5733 ft 228 kts
2026-04-27 07:13 35.62811 24.07933 6270 ft 232 kts 339°
2026-04-27 07:13 35.64245 24.06876 6545 ft 248 kts 323°
2026-04-27 07:14 35.65622 24.05552 7007 ft 254 kts 321°
2026-04-27 07:14 35.67004 24.04193 7575 ft 255 kts 321°
2026-04-27 07:14 35.68385 24.02833 8186 ft 254 kts 321°
2026-04-27 07:14 35.69773 24.01472 8724 ft 256 kts 321°
2026-04-27 07:15 35.71174 24.00104 9277 ft 258 kts 321°
2026-04-27 07:15 35.72585 23.98728 9834 ft 259 kts 321°
2026-04-27 07:15 35.74003 23.97349 10355 ft 260 kts 322°
2026-04-27 07:15 35.75431 23.95961 10845 ft 262 kts 322°
2026-04-27 07:16 35.76868 23.94566 11319 ft 265 kts 322°
2026-04-27 07:16 35.78320 23.93156 11791 ft 267 kts 322°
2026-04-27 07:16 35.79784 23.91735 12270 ft 269 kts 322°
2026-04-27 07:16 35.81258 23.90304 12743 ft 271 kts 322°
2026-04-27 07:17 35.82744 23.88860 13196 ft 273 kts 322°
2026-04-27 07:17 35.84238 23.87409 13682 ft 275 kts 322°
2026-04-27 07:17 35.85745 23.85944 14104 ft 277 kts 322°
2026-04-27 07:17 35.87261 23.84469 14525 ft 278 kts 322°
2026-04-27 07:18 35.88784 23.82988 14934 ft 280 kts 322°
2026-04-27 07:18 35.90314 23.81498 15348 ft 281 kts 322°
2026-04-27 07:18 35.91853 23.79998 15750 ft 283 kts 322°
2026-04-27 07:18 35.93402 23.78489 16142 ft 285 kts 321°
2026-04-27 07:19 35.94973 23.76958 16443 ft 293 kts 321°
2026-04-27 07:19 35.96624 23.75347 16521 ft 312 kts 321°
2026-04-27 07:19 35.98381 23.73632 16654 ft 332 kts 321°
2026-04-27 07:19 36.00245 23.71814 16812 ft 351 kts 321°
2026-04-27 07:20 36.02213 23.69917 17073 ft 365 kts 322°
2026-04-27 07:20 36.04235 23.67979 17607 ft 370 kts 322°
2026-04-27 07:20 36.06274 23.66025 18289 ft 372 kts 321°
2026-04-27 07:20 36.08320 23.64061 18878 ft 374 kts 321°
2026-04-27 07:21 36.10382 23.62080 19424 ft 377 kts 321°
2026-04-27 07:21 36.12427 23.60112 19958 ft 379 kts 321°
2026-04-27 07:21 36.14517 23.58099 20492 ft 382 kts 321°
2026-04-27 07:21 36.16622 23.56069 21016 ft 385 kts 321°
2026-04-27 07:22 36.18768 23.53998 21545 ft 388 kts 321°
2026-04-27 07:22 36.20905 23.51934 22063 ft 391 kts 321°
2026-04-27 07:22 36.23055 23.49857 22568 ft 393 kts 320°
2026-04-27 07:22 36.25246 23.47883 23040 ft 398 kts 329°
2026-04-27 07:23 36.27847 23.46657 23503 ft 405 kts 346°
2026-04-27 07:23 36.30625 23.46034 23973 ft 407 kts 348°
2026-04-27 07:23 36.33434 23.45488 24372 ft 410 kts 349°
2026-04-27 07:23 36.36266 23.44955 24767 ft 413 kts 349°
2026-04-27 07:24 36.39111 23.44410 25179 ft 414 kts 348°
2026-04-27 07:24 36.41966 23.43848 25587 ft 416 kts 348°
2026-04-27 07:24 36.44831 23.43271 25979 ft 418 kts 348°
2026-04-27 07:24 36.47705 23.42682 26350 ft 420 kts 348°
2026-04-27 07:25 36.50598 23.42085 26733 ft 423 kts 348°
2026-04-27 07:25 36.53505 23.41482 27097 ft 424 kts 348°
2026-04-27 07:25 36.56420 23.40877 27467 ft 426 kts 348°
2026-04-27 07:25 36.59353 23.40268 27823 ft 429 kts 347°
2026-04-27 07:26 36.62303 23.39655 28147 ft 431 kts 348°
2026-04-27 07:26 36.65267 23.39039 28488 ft 433 kts 348°
2026-04-27 07:26 36.68245 23.38420 28810 ft 435 kts 347°
2026-04-27 07:26 36.71236 23.37797 29142 ft 437 kts 348°
2026-04-27 07:27 36.74241 23.37172 29458 ft 439 kts 347°
2026-04-27 07:27 36.77258 23.36543 29754 ft 441 kts 348°
2026-04-27 07:27 36.80292 23.35910 30057 ft 443 kts 347°
2026-04-27 07:27 36.83334 23.35276 30356 ft 444 kts 348°
2026-04-27 07:28 36.86373 23.34643 30716 ft 442 kts 347°
2026-04-27 07:28 36.89399 23.34013 31128 ft 440 kts 347°
2026-04-27 07:28 36.92410 23.33386 31509 ft 438 kts 347°
2026-04-27 07:28 36.95414 23.32759 31838 ft 437 kts 347°
2026-04-27 07:29 36.98415 23.32131 32150 ft 437 kts 347°
2026-04-27 07:29 37.01405 23.31506 32490 ft 436 kts 347°
2026-04-27 07:29 37.04392 23.30880 32841 ft 434 kts 347°
2026-04-27 07:29 37.07363 23.30258 33177 ft 433 kts 347°
2026-04-27 07:30 37.10335 23.29634 33491 ft 432 kts 347°
2026-04-27 07:30 37.13297 23.29015 33790 ft 432 kts 348°
2026-04-27 07:30 37.16261 23.28412 34097 ft 431 kts 348°
2026-04-27 07:30 37.19214 23.27797 34369 ft 430 kts 347°
2026-04-27 07:31 37.22161 23.27172 34590 ft 430 kts 347°
2026-04-27 07:31 37.25068 23.26551 34783 ft 430 kts 347°
2026-04-27 07:31 37.28022 23.25919 35003 ft 430 kts 347°
2026-04-27 07:31 37.30966 23.25291 35260 ft 429 kts 347°
2026-04-27 07:32 37.33904 23.24665 35486 ft 429 kts 347°
2026-04-27 07:32 37.36849 23.24037 35677 ft 429 kts 347°
2026-04-27 07:32 37.39795 23.23410 35881 ft 429 kts 347°
2026-04-27 07:32 37.42741 23.22781 36088 ft 429 kts 347°
2026-04-27 07:33 37.45643 23.21920 36095 ft 429 kts 338°
2026-04-27 07:33 37.50919 23.18566 36118 ft 423 kts 321°
2026-04-27 07:34 37.55459 23.13906 36118 ft 420 kts 318°
2026-04-27 07:34 37.59919 23.09172 36127 ft 418 kts 318°
2026-04-27 07:35 37.64376 23.04474 36118 ft 417 kts 319°
2026-04-27 07:35 37.68835 22.99802 36128 ft 416 kts 319°
2026-04-27 07:36 37.73298 22.95132 36133 ft 417 kts 319°
2026-04-27 07:36 37.77770 22.90447 36133 ft 418 kts 319°
2026-04-27 07:37 37.82225 22.85773 36131 ft 420 kts 319°
2026-04-27 07:37 37.86752 22.81013 36139 ft 421 kts 319°
2026-04-27 07:38 37.91266 22.76261 36140 ft 423 kts 319°
2026-04-27 07:38 37.95767 22.71514 36137 ft 424 kts 319°
2026-04-27 07:39 38.00305 22.66720 36141 ft 425 kts 319°
2026-04-27 07:39 38.04846 22.61915 36138 ft 425 kts 319°
2026-04-27 07:40 38.09387 22.57101 36143 ft 425 kts 319°
2026-04-27 07:40 38.13928 22.52281 36137 ft 425 kts 319°
2026-04-27 07:41 38.18454 22.47466 36143 ft 424 kts 319°
2026-04-27 07:41 38.22972 22.42654 36145 ft 423 kts 319°
2026-04-27 07:42 38.27483 22.37840 36146 ft 423 kts 319°
2026-04-27 07:42 38.31984 22.33028 36146 ft 422 kts 319°
2026-04-27 07:43 38.36480 22.28215 36152 ft 422 kts 319°
2026-04-27 07:43 38.40975 22.23394 36147 ft 423 kts 319°
2026-04-27 07:44 38.45481 22.18553 36151 ft 424 kts 319°
2026-04-27 07:44 38.49992 22.13698 36146 ft 425 kts 319°
2026-04-27 07:45 38.54504 22.08835 36150 ft 425 kts 319°
2026-04-27 07:45 38.59019 22.03959 36148 ft 425 kts 319°
2026-04-27 07:46 38.63529 21.99080 36156 ft 425 kts 319°
2026-04-27 07:46 38.68044 21.94190 36159 ft 426 kts 319°
2026-04-27 07:47 38.72575 21.89299 36155 ft 426 kts 319°
2026-04-27 07:47 38.77113 21.84401 36166 ft 427 kts 319°
2026-04-27 07:48 38.81652 21.79490 36158 ft 427 kts 319°
2026-04-27 07:48 38.86188 21.74571 36156 ft 427 kts 319°
2026-04-27 07:49 38.90728 21.69640 36156 ft 427 kts 319°
2026-04-27 07:49 38.95260 21.64707 36156 ft 427 kts 318°
2026-04-27 07:50 38.99783 21.59776 36156 ft 426 kts 318°
2026-04-27 07:50 39.04299 21.54844 36157 ft 426 kts 318°
2026-04-27 07:51 39.08774 21.49949 36154 ft 425 kts 318°
2026-04-27 07:51 39.13279 21.45012 36150 ft 425 kts 318°
2026-04-27 07:52 39.17776 21.40075 36147 ft 424 kts 318°
2026-04-27 07:52 39.22260 21.35144 36153 ft 423 kts 318°
2026-04-27 07:53 39.26739 21.30211 36156 ft 423 kts 318°
2026-04-27 07:53 39.31209 21.25278 36157 ft 423 kts 318°
2026-04-27 07:54 39.35673 21.20343 36166 ft 422 kts 318°
2026-04-27 07:54 39.40135 21.15401 36140 ft 423 kts 317°
2026-04-27 07:55 39.44602 21.10446 36163 ft 423 kts 317°
2026-04-27 07:55 39.49067 21.05484 36147 ft 423 kts 317°
2026-04-27 07:56 39.52779 21.01353 36155 ft 423 kts 317°
2026-04-27 07:56 39.57965 20.95568 36158 ft 423 kts 317°
2026-04-27 07:57 39.62424 20.90586 36164 ft 423 kts 317°
2026-04-27 07:57 39.66877 20.85604 36160 ft 422 kts 317°
2026-04-27 07:58 39.70724 20.81701 36156 ft 424 kts 326°
2026-04-27 07:58 39.76071 20.78309 36159 ft 425 kts 333°
2026-04-27 07:59 39.81431 20.75164 36155 ft 425 kts 333°
2026-04-27 07:59 39.89488 20.70332 36157 ft 425 kts 332°
2026-04-27 08:00 39.94847 20.67080 36158 ft 425 kts 332°
2026-04-27 08:00 40.00199 20.63825 36144 ft 424 kts 332°
2026-04-27 08:01 40.05535 20.60578 36152 ft 423 kts 332°
2026-04-27 08:01 40.10579 20.56734 36150 ft 419 kts 323°
2026-04-27 08:02 40.15382 20.52403 36139 ft 419 kts 323°
2026-04-27 08:02 40.20182 20.48054 36147 ft 420 kts 323°
2026-04-27 08:03 40.25001 20.43716 36146 ft 421 kts 323°
2026-04-27 08:03 40.29829 20.39383 36141 ft 421 kts 323°
2026-04-27 08:04 40.34660 20.35046 36146 ft 421 kts 323°
2026-04-27 08:04 40.39499 20.30695 36137 ft 422 kts 323°
2026-04-27 08:05 40.44338 20.26336 36127 ft 422 kts 323°
2026-04-27 08:05 40.49173 20.21974 36137 ft 421 kts 323°
2026-04-27 08:06 40.54003 20.17607 36134 ft 422 kts 323°
2026-04-27 08:06 40.58837 20.13229 36130 ft 422 kts 323°
2026-04-27 08:07 40.63671 20.08843 36124 ft 422 kts 323°
2026-04-27 08:07 40.68496 20.04458 36125 ft 421 kts 323°
2026-04-27 08:08 40.73316 20.00069 36128 ft 421 kts 323°
2026-04-27 08:08 40.78126 19.95682 36116 ft 420 kts 323°
2026-04-27 08:09 40.82927 19.91294 36121 ft 419 kts 322°
2026-04-27 08:09 40.87721 19.86906 36119 ft 419 kts 322°
2026-04-27 08:10 40.92506 19.82518 36117 ft 418 kts 322°
2026-04-27 08:10 40.97282 19.78130 36123 ft 418 kts 322°
2026-04-27 08:11 41.02050 19.73741 36123 ft 417 kts 322°
2026-04-27 08:11 41.06818 19.69344 36123 ft 417 kts 322°
2026-04-27 08:12 41.11580 19.64946 36125 ft 417 kts 322°
2026-04-27 08:12 41.16341 19.60540 36129 ft 417 kts 322°
2026-04-27 08:13 41.21070 19.56155 36131 ft 417 kts 322°
2026-04-27 08:13 41.25831 19.51734 36133 ft 418 kts 322°
2026-04-27 08:14 41.30591 19.47305 36126 ft 417 kts 322°
2026-04-27 08:14 41.35345 19.42874 36137 ft 417 kts 322°
2026-04-27 08:15 41.40098 19.38436 36126 ft 417 kts 322°
2026-04-27 08:15 41.44845 19.33995 36133 ft 417 kts 322°
2026-04-27 08:16 41.49589 19.29549 36138 ft 417 kts 322°
2026-04-27 08:16 41.54327 19.25100 36134 ft 416 kts 322°
2026-04-27 08:17 41.59062 19.20646 36137 ft 416 kts 322°
2026-04-27 08:17 41.63795 19.16186 36139 ft 416 kts 322°
2026-04-27 08:18 41.68528 19.11717 36142 ft 416 kts 322°
2026-04-27 08:18 41.73260 19.07242 36148 ft 417 kts 322°
2026-04-27 08:19 41.77994 19.02756 36150 ft 417 kts 322°
2026-04-27 08:19 41.82728 18.98262 36153 ft 417 kts 322°
2026-04-27 08:20 41.87467 18.93754 36150 ft 417 kts 322°
2026-04-27 08:20 41.92202 18.89242 36153 ft 418 kts 322°
2026-04-27 08:21 41.96941 18.84719 36152 ft 418 kts 322°
2026-04-27 08:21 42.01684 18.80183 36156 ft 418 kts 322°
2026-04-27 08:22 42.06421 18.75643 36154 ft 418 kts 322°
2026-04-27 08:22 42.11163 18.71091 36157 ft 419 kts 322°
2026-04-27 08:23 42.15902 18.66534 36158 ft 418 kts 322°
2026-04-27 08:23 42.20639 18.61969 36154 ft 418 kts 322°
2026-04-27 08:24 42.25342 18.57429 36157 ft 418 kts 322°
2026-04-27 08:24 42.30104 18.52823 36156 ft 418 kts 322°
2026-04-27 08:25 42.34801 18.48272 36156 ft 418 kts 322°
2026-04-27 08:25 42.39524 18.43686 36156 ft 418 kts 322°
2026-04-27 08:26 42.44245 18.39094 36154 ft 418 kts 322°
2026-04-27 08:26 42.48962 18.34497 36157 ft 418 kts 322°
2026-04-27 08:27 42.53679 18.29891 36158 ft 418 kts 322°
2026-04-27 08:27 42.58395 18.25278 36157 ft 418 kts 322°
2026-04-27 08:28 42.63124 18.20642 36158 ft 419 kts 322°
2026-04-27 08:28 42.67857 18.15994 36155 ft 420 kts 322°
2026-04-27 08:29 42.72588 18.11340 36157 ft 420 kts 322°
2026-04-27 08:29 42.77315 18.06681 36155 ft 419 kts 322°
2026-04-27 08:30 42.82026 18.02028 36165 ft 418 kts 322°
2026-04-27 08:30 42.86729 17.97373 36166 ft 418 kts 322°
2026-04-27 08:31 42.91424 17.92718 36177 ft 417 kts 322°
2026-04-27 08:31 42.96114 17.88060 36161 ft 417 kts 322°
2026-04-27 08:32 43.00802 17.83393 36168 ft 417 kts 321°
2026-04-27 08:32 43.05482 17.78726 36161 ft 417 kts 321°
2026-04-27 08:33 43.10160 17.74052 36174 ft 416 kts 321°
2026-04-27 08:33 43.14834 17.69372 36166 ft 417 kts 321°
2026-04-27 08:34 43.19483 17.64709 36165 ft 417 kts 321°
2026-04-27 08:34 43.24161 17.60007 36167 ft 417 kts 321°
2026-04-27 08:35 43.28838 17.55298 36168 ft 417 kts 321°
2026-04-27 08:35 43.33506 17.50589 36169 ft 416 kts 321°
2026-04-27 08:36 43.38172 17.45872 36177 ft 416 kts 321°
2026-04-27 08:36 43.42840 17.41144 36178 ft 417 kts 321°
2026-04-27 08:37 43.47502 17.36413 36182 ft 417 kts 321°
2026-04-27 08:37 43.52163 17.31673 36186 ft 416 kts 321°
2026-04-27 08:38 43.56824 17.26924 36181 ft 416 kts 321°
2026-04-27 08:38 43.61475 17.22177 36181 ft 416 kts 321°
2026-04-27 08:39 43.66120 17.17425 36177 ft 415 kts 321°
2026-04-27 08:39 43.70762 17.12667 36177 ft 415 kts 321°
2026-04-27 08:40 43.75395 17.07909 36182 ft 415 kts 321°
2026-04-27 08:40 43.80028 17.03142 36167 ft 415 kts 320°
2026-04-27 08:41 43.84657 16.98370 36180 ft 415 kts 320°
2026-04-27 08:41 43.89281 16.93593 36183 ft 415 kts 320°
2026-04-27 08:42 43.93124 16.89617 36179 ft 415 kts 320°
2026-04-27 08:42 43.97745 16.84826 36182 ft 414 kts 320°
2026-04-27 08:43 44.03104 16.79257 36180 ft 414 kts 320°
2026-04-27 08:43 44.06967 16.75236 36178 ft 414 kts 320°
2026-04-27 08:44 44.11566 16.70439 36181 ft 413 kts 320°
2026-04-27 08:44 44.16133 16.65667 36184 ft 413 kts 320°
2026-04-27 08:45 44.20727 16.60854 36184 ft 413 kts 320°
2026-04-27 08:45 44.25327 16.56028 36180 ft 414 kts 321°
2026-04-27 08:46 44.29926 16.51192 36183 ft 414 kts 321°
2026-04-27 08:46 44.34534 16.46338 36190 ft 415 kts 321°
2026-04-27 08:47 44.39140 16.41476 36186 ft 415 kts 321°
2026-04-27 08:47 44.43749 16.36601 36184 ft 416 kts 321°
2026-04-27 08:48 44.48359 16.31715 36195 ft 416 kts 321°
2026-04-27 08:48 44.52967 16.26821 36202 ft 416 kts 321°
2026-04-27 08:49 44.57570 16.21923 36211 ft 415 kts 321°
2026-04-27 08:49 44.62173 16.17014 36202 ft 415 kts 321°
2026-04-27 08:50 44.66765 16.12107 36222 ft 415 kts 321°
2026-04-27 08:50 44.71361 16.07186 36212 ft 415 kts 321°
2026-04-27 08:51 44.75951 16.02261 36216 ft 415 kts 321°
2026-04-27 08:51 44.80538 15.97330 36219 ft 415 kts 321°
2026-04-27 08:52 44.85123 15.92390 36225 ft 415 kts 321°
2026-04-27 08:52 44.89703 15.87445 36228 ft 415 kts 321°
2026-04-27 08:53 44.94283 15.82490 36232 ft 415 kts 321°
2026-04-27 08:53 44.98857 15.77532 36239 ft 414 kts 322°
2026-04-27 08:54 45.03429 15.72566 36238 ft 414 kts 322°
2026-04-27 08:54 45.07988 15.67603 36236 ft 414 kts 322°
2026-04-27 08:55 45.12547 15.62630 36241 ft 413 kts 322°
2026-04-27 08:55 45.17099 15.57654 36242 ft 413 kts 322°
2026-04-27 08:56 45.21643 15.52677 36248 ft 413 kts 322°
2026-04-27 08:56 45.26181 15.47697 36244 ft 412 kts 322°
2026-04-27 08:57 45.32984 15.40210 36242 ft 412 kts 322°
2026-04-27 08:58 45.37511 15.35216 36247 ft 412 kts 322°
2026-04-27 08:58 45.42002 15.30251 36237 ft 412 kts 322°
2026-04-27 08:59 45.46516 15.25249 36246 ft 411 kts 322°
2026-04-27 08:59 45.51058 15.20207 36233 ft 411 kts 322°
2026-04-27 09:00 45.55533 15.15228 36232 ft 411 kts 322°
2026-04-27 09:00 45.60034 15.10209 36228 ft 410 kts 322°
2026-04-27 09:01 45.64528 15.05190 36236 ft 410 kts 322°
2026-04-27 09:01 45.69015 15.00165 36236 ft 410 kts 322°
2026-04-27 09:02 45.73501 14.95133 36226 ft 409 kts 322°
2026-04-27 09:02 45.77976 14.90102 36232 ft 409 kts 322°
2026-04-27 09:03 45.82448 14.85063 36228 ft 409 kts 322°
2026-04-27 09:03 45.86927 14.80007 36228 ft 409 kts 322°
2026-04-27 09:04 45.91399 14.74947 36219 ft 409 kts 322°
2026-04-27 09:04 45.95865 14.69883 36230 ft 409 kts 322°
2026-04-27 09:05 46.00328 14.64813 36228 ft 409 kts 322°
2026-04-27 09:05 46.04785 14.59738 36236 ft 409 kts 322°
2026-04-27 09:06 46.09241 14.54654 36229 ft 409 kts 322°
2026-04-27 09:06 46.13694 14.49561 36238 ft 408 kts 322°
2026-04-27 09:07 46.18141 14.44465 36240 ft 408 kts 322°
2026-04-27 09:07 46.22587 14.39360 36239 ft 408 kts 322°
2026-04-27 09:08 46.26916 14.34046 36234 ft 409 kts 313°
2026-04-27 09:08 46.30555 14.27710 36228 ft 410 kts 310°
2026-04-27 09:09 46.34133 14.21283 36225 ft 410 kts 310°
2026-04-27 09:09 46.37724 14.14863 36221 ft 410 kts 311°
2026-04-27 09:10 46.41303 14.08491 36216 ft 410 kts 311°
2026-04-27 09:10 46.44909 14.02071 36218 ft 411 kts 311°
2026-04-27 09:11 46.48523 13.95626 36209 ft 412 kts 310°
2026-04-27 09:11 46.52131 13.89175 36193 ft 411 kts 311°
2026-04-27 09:12 46.55737 13.82714 36189 ft 412 kts 310°
2026-04-27 09:12 46.59333 13.76255 36196 ft 410 kts 310°
2026-04-27 09:13 46.62920 13.69797 36188 ft 410 kts 310°
2026-04-27 09:13 46.66507 13.63324 36184 ft 411 kts 310°
2026-04-27 09:14 46.70091 13.56841 36182 ft 411 kts 310°
2026-04-27 09:14 46.73668 13.50355 36164 ft 411 kts 310°
2026-04-27 09:15 46.77236 13.43870 36182 ft 409 kts 310°
2026-04-27 09:15 46.80794 13.37389 36182 ft 409 kts 310°
2026-04-27 09:16 46.84349 13.30897 36172 ft 408 kts 310°
2026-04-27 09:16 46.87890 13.24417 36166 ft 408 kts 310°
2026-04-27 09:17 46.91421 13.17939 36166 ft 407 kts 310°
2026-04-27 09:17 46.94950 13.11449 36163 ft 407 kts 309°
2026-04-27 09:18 46.98440 13.05015 36169 ft 406 kts 309°
2026-04-27 09:18 47.01941 12.98546 36172 ft 405 kts 309°
2026-04-27 09:19 47.05437 12.92074 36177 ft 404 kts 309°
2026-04-27 09:19 47.08926 12.85599 36173 ft 405 kts 309°
2026-04-27 09:20 47.12413 12.79109 36183 ft 406 kts 309°
2026-04-27 09:20 47.15904 12.72599 36198 ft 405 kts 309°
2026-04-27 09:21 47.19396 12.66071 36191 ft 407 kts 309°
2026-04-27 09:21 47.22893 12.59517 36189 ft 408 kts 309°
2026-04-27 09:22 47.26394 12.52940 36181 ft 408 kts 309°
2026-04-27 09:22 47.29894 12.46349 36178 ft 408 kts 309°
2026-04-27 09:23 47.33386 12.39759 36196 ft 408 kts 309°
2026-04-27 09:23 47.36869 12.33168 36199 ft 408 kts 309°
2026-04-27 09:24 47.40352 12.26563 36190 ft 408 kts 308°
2026-04-27 09:24 47.43833 12.19944 36206 ft 408 kts 308°
2026-04-27 09:25 47.47306 12.13324 36213 ft 407 kts 308°
2026-04-27 09:25 47.50772 12.06702 36205 ft 407 kts 308°
2026-04-27 09:26 47.54233 12.00070 36204 ft 407 kts 308°
2026-04-27 09:26 47.57628 11.93375 36204 ft 407 kts 307°
2026-04-27 09:27 47.60995 11.86649 36205 ft 406 kts 307°
2026-04-27 09:27 47.64352 11.79936 36203 ft 405 kts 307°
2026-04-27 09:28 47.67708 11.73223 36206 ft 405 kts 307°
2026-04-27 09:28 47.71063 11.66501 36208 ft 406 kts 307°
2026-04-27 09:29 47.73853 11.60898 36209 ft 406 kts 307°
2026-04-27 09:29 47.77213 11.54137 36206 ft 407 kts 307°
2026-04-27 09:30 47.80574 11.47358 36210 ft 407 kts 307°
2026-04-27 09:30 47.83933 11.40565 36218 ft 408 kts 307°
2026-04-27 09:31 47.87289 11.33761 36224 ft 408 kts 307°
2026-04-27 09:31 47.90643 11.26944 36224 ft 408 kts 307°
2026-04-27 09:32 47.93987 11.20130 36228 ft 407 kts 307°
2026-04-27 09:32 47.97331 11.13299 36230 ft 407 kts 307°
2026-04-27 09:33 48.00666 11.06469 36228 ft 407 kts 307°
2026-04-27 09:33 48.03994 10.99638 36231 ft 407 kts 307°
2026-04-27 09:34 48.07317 10.92800 36237 ft 406 kts 307°
2026-04-27 09:34 48.10633 10.85958 36236 ft 406 kts 307°
2026-04-27 09:35 48.13918 10.79163 36240 ft 406 kts 306°
2026-04-27 09:35 48.17221 10.72314 36239 ft 405 kts 306°
2026-04-27 09:36 48.20516 10.65462 36235 ft 405 kts 306°
2026-04-27 09:36 48.23801 10.58616 36230 ft 404 kts 306°
2026-04-27 09:37 48.27082 10.51762 36230 ft 404 kts 306°
2026-04-27 09:37 48.30350 10.44915 36229 ft 404 kts 306°
2026-04-27 09:38 48.33617 10.38055 36217 ft 403 kts 306°
2026-04-27 09:38 48.36874 10.31198 36222 ft 403 kts 306°
2026-04-27 09:39 48.40127 10.24333 36220 ft 403 kts 306°
2026-04-27 09:39 48.43372 10.17465 36227 ft 403 kts 306°
2026-04-27 09:40 48.46615 10.10586 36225 ft 402 kts 306°
2026-04-27 09:40 48.49850 10.03707 36224 ft 403 kts 306°
2026-04-27 09:41 48.53082 9.96814 36218 ft 403 kts 306°
2026-04-27 09:41 48.56313 9.89908 36216 ft 403 kts 306°
2026-04-27 09:42 48.59537 9.82998 36211 ft 403 kts 305°
2026-04-27 09:42 48.62760 9.76072 36208 ft 403 kts 305°
2026-04-27 09:43 48.65940 9.69224 36206 ft 403 kts 305°
2026-04-27 09:43 48.69204 9.62341 36201 ft 403 kts 307°
2026-04-27 09:44 48.72596 9.55586 36205 ft 403 kts 307°
2026-04-27 09:44 48.75869 9.49087 36206 ft 402 kts 307°
2026-04-27 09:45 48.79243 9.42330 36205 ft 402 kts 307°
2026-04-27 09:45 48.82580 9.35605 36202 ft 402 kts 307°
2026-04-27 09:46 48.85934 9.28821 36207 ft 401 kts 306°
2026-04-27 09:46 48.89281 9.22031 36203 ft 401 kts 306°
2026-04-27 09:47 48.92618 9.15245 36205 ft 401 kts 306°
2026-04-27 09:47 48.95951 9.08449 36202 ft 400 kts 306°
2026-04-27 09:48 48.99277 9.01651 36206 ft 400 kts 306°
2026-04-27 09:48 49.02598 8.94845 36211 ft 400 kts 306°
2026-04-27 09:49 49.05913 8.88036 36209 ft 400 kts 306°
2026-04-27 09:49 49.09224 8.81216 36211 ft 400 kts 305°
2026-04-27 09:50 49.12532 8.74385 36214 ft 400 kts 305°
2026-04-27 09:50 49.15833 8.67551 36220 ft 400 kts 305°
2026-04-27 09:51 49.19135 8.60698 36222 ft 400 kts 305°
2026-04-27 09:51 49.22432 8.53838 36223 ft 400 kts 305°
2026-04-27 09:52 49.25722 8.46974 36235 ft 400 kts 305°
2026-04-27 09:52 49.29006 8.40106 36235 ft 400 kts 304°
2026-04-27 09:53 49.32265 8.33271 36234 ft 400 kts 304°
2026-04-27 09:53 49.35544 8.26379 36234 ft 400 kts 304°
2026-04-27 09:54 49.38815 8.19486 36231 ft 400 kts 304°
2026-04-27 09:54 49.42083 8.12579 36228 ft 400 kts 304°
2026-04-27 09:55 49.45348 8.05662 36232 ft 399 kts 304°
2026-04-27 09:55 49.50231 7.95283 36232 ft 399 kts 304°
2026-04-27 09:56 49.53484 7.88344 36235 ft 400 kts 304°
2026-04-27 09:56 49.56735 7.81394 36235 ft 400 kts 304°
2026-04-27 09:57 49.59988 7.74421 36232 ft 401 kts 303°
2026-04-27 09:57 49.63236 7.67440 36234 ft 401 kts 303°
2026-04-27 09:58 49.66487 7.60435 36238 ft 401 kts 303°
2026-04-27 09:58 49.69733 7.53420 36240 ft 402 kts 303°
2026-04-27 09:59 49.72978 7.46392 36234 ft 402 kts 303°
2026-04-27 09:59 49.76219 7.39352 36240 ft 401 kts 303°
2026-04-27 10:00 49.79454 7.32307 36242 ft 402 kts 303°
2026-04-27 10:00 49.82683 7.25255 36234 ft 401 kts 303°
2026-04-27 10:01 49.85906 7.18200 36250 ft 401 kts 303°
2026-04-27 10:01 49.89103 7.11180 36230 ft 401 kts 302°
2026-04-27 10:02 49.92309 7.04123 36240 ft 400 kts 302°
2026-04-27 10:02 49.95509 6.97063 36244 ft 400 kts 302°
2026-04-27 10:03 49.98706 6.89985 36238 ft 400 kts 302°
2026-04-27 10:03 50.01898 6.82903 36238 ft 400 kts 302°
2026-04-27 10:04 50.05092 6.75798 36236 ft 400 kts 302°
2026-04-27 10:04 50.08277 6.68690 36246 ft 400 kts 302°
2026-04-27 10:05 50.11458 6.61575 36233 ft 400 kts 302°
2026-04-27 10:05 50.14638 6.54442 36225 ft 401 kts 302°
2026-04-27 10:06 50.17817 6.47295 36223 ft 401 kts 302°
2026-04-27 10:06 50.20989 6.40196 36220 ft 402 kts 302°
2026-04-27 10:07 50.24208 6.33056 36217 ft 402 kts 302°
2026-04-27 10:07 50.27426 6.25902 36217 ft 402 kts 302°
2026-04-27 10:08 50.30637 6.18734 36232 ft 402 kts 302°
2026-04-27 10:08 50.33843 6.11555 36230 ft 402 kts 302°
2026-04-27 10:09 50.37040 6.04372 36219 ft 399 kts 302°
2026-04-27 10:09 50.40169 5.97330 36215 ft 391 kts 302°
2026-04-27 10:10 50.43260 5.90347 36057 ft 391 kts 302°
2026-04-27 10:10 50.44800 5.86861 35804 ft 385 kts 302°
2026-04-27 10:10 50.46318 5.83422 35396 ft 382 kts 302°
2026-04-27 10:11 50.47821 5.80014 35056 ft 378 kts 302°
2026-04-27 10:11 50.49309 5.76631 34691 ft 375 kts 302°
2026-04-27 10:11 50.50786 5.73271 34335 ft 372 kts 301°
2026-04-27 10:11 50.52253 5.69931 33922 ft 370 kts 301°
2026-04-27 10:12 50.53707 5.66613 33523 ft 367 kts 301°
2026-04-27 10:12 50.55117 5.63394 33161 ft 364 kts 301°
2026-04-27 10:12 50.56545 5.60130 32800 ft 361 kts 301°
2026-04-27 10:12 50.57961 5.56889 32440 ft 358 kts 301°
2026-04-27 10:13 50.59363 5.53675 32098 ft 355 kts 301°
2026-04-27 10:13 50.60753 5.50485 31735 ft 352 kts 301°
2026-04-27 10:13 50.62133 5.47313 31382 ft 350 kts 301°
2026-04-27 10:13 50.63503 5.44161 31037 ft 347 kts 301°
2026-04-27 10:14 50.64863 5.41029 30696 ft 345 kts 301°
2026-04-27 10:14 50.66211 5.37920 30362 ft 343 kts 301°
2026-04-27 10:14 50.67554 5.34818 29966 ft 341 kts 301°
2026-04-27 10:14 50.68882 5.31748 29606 ft 337 kts 301°
2026-04-27 10:15 50.70199 5.28700 29242 ft 335 kts 301°
2026-04-27 10:15 50.71503 5.25682 28900 ft 331 kts 301°
2026-04-27 10:15 50.72791 5.22692 28539 ft 328 kts 301°
2026-04-27 10:15 50.74069 5.19724 28208 ft 325 kts 302°
2026-04-27 10:16 50.75336 5.16777 27847 ft 323 kts 302°
2026-04-27 10:16 50.76170 5.14838 27628 ft 321 kts 302°
2026-04-27 10:16 50.77420 5.11928 27290 ft 319 kts 301°
2026-04-27 10:16 50.78350 5.09759 27034 ft 318 kts 302°
2026-04-27 10:17 50.79407 5.07292 26747 ft 316 kts 302°
2026-04-27 10:17 50.80526 5.04327 26424 ft 312 kts 294°
2026-04-27 10:17 50.81300 5.01143 26099 ft 309 kts 287°
2026-04-27 10:17 50.81925 4.97898 25790 ft 309 kts 286°
2026-04-27 10:18 50.82530 4.94643 25473 ft 309 kts 286°
2026-04-27 10:18 50.83139 4.91362 25163 ft 314 kts 286°
2026-04-27 10:18 50.83768 4.87993 24842 ft 324 kts 286°
2026-04-27 10:18 50.84414 4.84555 24488 ft 326 kts 286°
2026-04-27 10:19 50.85062 4.81119 24147 ft 325 kts 286°
2026-04-27 10:19 50.85708 4.77698 23784 ft 324 kts 287°
2026-04-27 10:19 50.86352 4.74283 23393 ft 323 kts 287°
2026-04-27 10:19 50.86994 4.70883 23025 ft 321 kts 287°
2026-04-27 10:20 50.87629 4.67514 22691 ft 318 kts 287°
2026-04-27 10:20 50.88259 4.64169 22352 ft 316 kts 287°
2026-04-27 10:20 50.88883 4.60845 22019 ft 314 kts 287°
2026-04-27 10:20 50.89502 4.57537 21683 ft 312 kts 287°
2026-04-27 10:21 50.90164 4.54275 21343 ft 311 kts 292°
2026-04-27 10:21 50.91134 4.51238 21081 ft 307 kts 300°
2026-04-27 10:21 50.92247 4.48358 20755 ft 306 kts 301°
2026-04-27 10:21 50.93374 4.45504 20431 ft 305 kts 301°
2026-04-27 10:22 50.94494 4.42667 20114 ft 303 kts 301°
2026-04-27 10:22 50.95607 4.39831 19797 ft 302 kts 301°
2026-04-27 10:22 50.96711 4.37000 19474 ft 301 kts 301°
2026-04-27 10:22 50.97807 4.34179 19166 ft 300 kts 301°
2026-04-27 10:23 50.98883 4.31402 18849 ft 299 kts 301°
2026-04-27 10:23 50.99981 4.28563 18538 ft 298 kts 301°
2026-04-27 10:23 51.01050 4.25794 18169 ft 297 kts 300°
2026-04-27 10:23 51.02127 4.22996 17843 ft 296 kts 301°
2026-04-27 10:24 51.03199 4.20207 17505 ft 295 kts 300°
2026-04-27 10:24 51.04263 4.17442 17208 ft 293 kts 300°
2026-04-27 10:24 51.05320 4.14683 16888 ft 291 kts 300°
2026-04-27 10:24 51.06374 4.11935 16568 ft 290 kts 300°
2026-04-27 10:25 51.07421 4.09200 16273 ft 289 kts 301°
2026-04-27 10:25 51.08468 4.06474 15943 ft 289 kts 300°
2026-04-27 10:25 51.09571 4.03813 15623 ft 289 kts 309°
2026-04-27 10:25 51.11043 4.01650 15327 ft 289 kts 321°
2026-04-27 10:26 51.12655 3.99750 15006 ft 289 kts 322°
2026-04-27 10:26 51.14284 3.97879 14701 ft 288 kts 322°
2026-04-27 10:26 51.15906 3.96003 14396 ft 288 kts 322°
2026-04-27 10:26 51.17519 3.94112 14083 ft 288 kts 322°
2026-04-27 10:27 51.19130 3.92203 13726 ft 288 kts 322°
2026-04-27 10:27 51.20735 3.90295 13414 ft 287 kts 322°
2026-04-27 10:27 51.22340 3.88397 13098 ft 287 kts 324°
2026-04-27 10:27 51.24152 3.87091 12790 ft 288 kts 346°
2026-04-27 10:28 51.26140 3.86798 12504 ft 287 kts 357°
2026-04-27 10:28 51.28137 3.86771 12224 ft 287 kts 358°
2026-04-27 10:28 51.30141 3.86768 11900 ft 288 kts 358°
2026-04-27 10:28 51.32121 3.86754 11615 ft 289 kts 358°
2026-04-27 10:29 51.34165 3.86724 11277 ft 290 kts 358°
2026-04-27 10:29 51.36177 3.86681 10972 ft 289 kts 358°
2026-04-27 10:29 51.38155 3.86634 10679 ft 287 kts 358°
2026-04-27 10:29 51.40170 3.86585 10416 ft 285 kts 359°
2026-04-27 10:30 51.42063 3.87149 10275 ft 280 kts 22°
2026-04-27 10:30 51.43744 3.88732 9995 ft 282 kts 33°
2026-04-27 10:30 51.45355 3.90588 9681 ft 281 kts 35°
2026-04-27 10:30 51.46926 3.92451 9405 ft 281 kts 35°
2026-04-27 10:31 51.48498 3.94311 9088 ft 281 kts 34°
2026-04-27 10:31 51.50068 3.96165 8801 ft 280 kts 35°
2026-04-27 10:31 51.51640 3.98012 8508 ft 280 kts 35°
2026-04-27 10:31 51.53207 3.99852 8211 ft 278 kts 34°
2026-04-27 10:32 51.54764 4.01672 7933 ft 276 kts 35°
2026-04-27 10:32 51.56315 4.03479 7677 ft 275 kts 34°
2026-04-27 10:32 51.57867 4.05295 7378 ft 276 kts 35°
2026-04-27 10:32 51.59404 4.07090 7084 ft 277 kts 35°
2026-04-27 10:33 51.60978 4.08934 6798 ft 276 kts 35°
2026-04-27 10:33 51.62512 4.10729 6482 ft 275 kts 35°
2026-04-27 10:33 51.64066 4.12510 6219 ft 274 kts 34°
2026-04-27 10:33 51.65619 4.14308 5894 ft 274 kts 36°
2026-04-27 10:34 51.67150 4.16123 5611 ft 273 kts 36°
2026-04-27 10:34 51.68672 4.17921 5340 ft 270 kts 36°
2026-04-27 10:34 51.70188 4.19707 5075 ft 270 kts 36°
2026-04-27 10:34 51.71709 4.21493 4766 ft 269 kts 36°
2026-04-27 10:35 51.73255 4.23216 4359 ft 271 kts 27°
2026-04-27 10:35 51.75039 4.23989 4170 ft 264 kts
2026-04-27 10:35 51.76839 4.23702 4054 ft 256 kts 351°
2026-04-27 10:35 51.78567 4.23206 3915 ft 248 kts 351°
2026-04-27 10:36 51.80235 4.22678 3844 ft 240 kts 342°
2026-04-27 10:36 51.81568 4.21183 3803 ft 235 kts 317°
2026-04-27 10:36 51.82991 4.19970 3488 ft 232 kts 354°
2026-04-27 10:36 51.84575 4.20063 3279 ft 224 kts
2026-04-27 10:37 51.86105 4.20233 3014 ft 216 kts 11°
2026-04-27 10:37 51.87320 4.21411 2850 ft 201 kts 54°
2026-04-27 10:37 51.87824 4.23448 2648 ft 191 kts 71°
2026-04-27 10:37 51.88374 4.25318 2547 ft 175 kts 63°
2026-04-27 10:38 51.88949 4.27006 2318 ft 168 kts 59°
2026-04-27 10:38 51.89558 4.28599 2104 ft 165 kts 58°
2026-04-27 10:38 51.90157 4.30121 1914 ft 152 kts 58°
2026-04-27 10:38 51.90726 4.31550 1685 ft 151 kts 58°
2026-04-27 10:39 51.91292 4.32974 1452 ft 150 kts 57°
2026-04-27 10:39 51.91855 4.34388 1250 ft 149 kts 57°
2026-04-27 10:39 51.92412 4.35794 1053 ft 148 kts 58°
2026-04-27 10:39 51.92965 4.37185 870 ft 146 kts 57°
2026-04-27 10:40 51.93515 4.38588 694 ft 150 kts 57°
2026-04-27 10:40 51.94090 4.40021 517 ft 153 kts 55°
2026-04-27 10:40 51.94683 4.41469 285 ft 154 kts 56°
2026-04-27 10:40 51.95257 4.42925 52 ft 150 kts 56°
2026-04-27 10:41 51.95771 4.44219 -1 ft 114 kts 58°
2026-04-27 10:41 51.95902 4.44669 -1 ft 16 kts 108°
2026-04-27 10:41 51.95824 4.44764 1 ft 12 kts 160°
2026-04-27 10:41 51.95761 4.44709 0 ft 12 kts 240°
2026-04-27 10:42 51.95702 4.44549 1 ft 19 kts 237°
2026-04-27 10:42 51.95628 4.44369 0 ft 19 kts 236°
2026-04-27 10:42 51.95560 4.44191 0 ft 18 kts 235°
2026-04-27 10:42 51.95490 4.44023 0 ft 18 kts 236°
2026-04-27 10:43 51.95426 4.43857 0 ft 17 kts 237°
2026-04-27 10:43 51.95363 4.43699 0 ft 16 kts 237°
2026-04-27 10:43 51.95301 4.43548 0 ft 16 kts 236°
2026-04-27 10:43 51.95207 4.43549 0 ft 15 kts 146°
2026-04-27 10:44 51.95120 4.43639 0 ft 15 kts 147°
2026-04-27 10:44 51.95034 4.43695 2 ft 14 kts 213°
2026-04-27 10:44 51.95020 4.43578 0 ft 9 kts 317°
2026-04-27 10:44 51.95036 4.43563 0 ft 0 kts 329°